Temperature
13 13 13 13 13 13 13 12 12 12 12 12 12 12 12 12 12 12 12 12 12 12 12 11 11 11 11 11 11 11 11 11 11 11 11 11 11 11 11 11 11 11 11
12 12 12 12 12 12 12 12 12 12 12 12 12 12 12 12 11 11 11 11 11 11 11 11 11 11 11 11 11 11 11 11 10 11 11 11 10 10 10 10 10 10 11
12 12 12 12 12 11 11 11 11 11 11 11 11 11 11 11 11 11 11 11 11 11 11 11 10 10 10 10 10 10 10 10 10 10 10 10 10 10 10 10 10 10 10
11 11 11 11 11 11 11 11 11 11 11 11 11 11 11 11 11 11 10 10 10 10 10 10 10 10 10 10 10 10 9 9 9 9 9 9 9 9 9 9 9 9 9
11 10 10 10 10 10 10 10 10 10 10 10 10 10 10 10 10 10 10 10 10 10 10 10 10 10 10 9 9 9 9 9 9 9 9 9 9 9 9 8 8 9 9
10 10 10 10 10 10 10 10 10 10 10 10 10 10 10 10 10 10 9 9 9 9 9 9 9 9 9 9 9 9 8 8 8 8 8 8 8 8 8 8 8 8 8
10 10 10 9 9 9 9 9 9 9 9 9 9 9 9 9 9 9 9 9 9 9 8 8 8 8 8 8 8 8 8 8 8 8 8 8 7 7 7 7 7 7 7
9 9 9 9 9 9 9 8 8 8 8 8 8 8 8 8 8 8 8 8 8 8 8 8 8 8 8 8 8 8 7 7 7 7 7 7 6 6 7 7 7 7 7
9 9 9 8 8 8 8 8 8 8 8 7 7 6 6 6 6 7 7 7 7 7 7 7 7 7 7 7 7 7 7 7 6 6 6 6 6 6 6 6 6 6 6
8 8 8 8 8 8 8 7 7 7 7 7 7 6 6 5 5 5 6 7 7 7 7 7 7 7 7 7 7 6 6 6 6 5 5 5 6 5 6 6 6 6 6
8 8 8 8 7 7 7 7 7 7 7 6 6 6 6 5 5 4 4 6 6 6 6 6 6 6 6 6 6 6 5 5 5 5 5 5 5 5 5 5 5 5 6
7 7 7 7 7 7 7 7 6 6 6 6 6 5 5 5 4 4 4 4 5 6 6 6 6 6 5 5 5 5 5 4 4 4 4 4 4 5 5 5 5 5 5
7 7 7 7 7 7 6 6 6 6 6 6 5 5 5 5 4 4 4 3 4 5 5 5 5 5 5 5 4 4 4 4 4 4 4 4 4 4 4 4 4 4 5
7 7 7 7 6 6 6 6 6 6 5 5 5 5 5 4 4 4 3 3 2 3 4 4 5 4 4 4 4 3 3 3 3 3 3 4 4 4 4 4 4 4 4
7 7 7 6 6 6 6 5 5 5 5 5 5 4 4 4 4 4 3 3 2 1 2 4 4 4 3 3 3 3 3 3 3 3 3 3 3 3 3 4 4 4 4
7 6 6 6 6 5 5 5 5 5 5 4 4 4 4 4 3 3 3 3 2 2 1 3 3 3 3 3 2 2 3 3 3 3 3 3 3 3 3 3 3 3 3
6 6 6 6 5 5 5 5 5 4 4 4 4 4 4 3 3 3 3 3 2 2 1 2 3 3 3 2 2 2 2 3 3 2 2 2 2 2 3 3 3 3 3
6 6 5 5 5 5 5 4 4 4 4 4 4 3 3 3 3 3 3 2 2 1 1 1 2 2 2 2 2 2 2 2 2 2 2 2 2 2 2 2 3 3 3
6 5 5 5 5 5 5 4 4 4 4 3 3 3 3 3 3 3 2 2 2 1 1 1 1 1 1 1 1 1 2 2 2 2 1 2 2 2 2 2 2 2 3
5 5 5 5 5 4 4 4 4 4 3 3 3 3 3 2 2 2 2 1 1 1 1 1 1 1 1 1 1 1 1 1 1 1 1 1 2 2 2 2 2 2 2
5 5 5 4 4 4 4 4 4 3 3 3 3 2 2 2 2 2 1 1 1 0 0 0 0 0 0 0 0 0 0 0 1 1 1 1 1 2 2 1 1 2 2
4 4 4 4 4 4 4 3 3 3 3 3 2 2 2 2 2 1 1 1 0 -0 -0 -0 -0 -0 -0 -0 -0 -0 -1 -1 -0 0 1 1 1 1 1 1 1 1 1
4 4 4 4 4 4 3 3 3 3 3 2 2 2 2 2 1 1 1 1 0 -0 -0 -1 -1 -1 -0 -0 -1 -1 -1 -1 -1 -0 -0 1 1 1 1 1 1 1 1
4 4 3 3 3 3 3 3 3 2 2 2 2 1 1 1 1 0 0 0 0 -0 -0 -1 -1 -1 -1 -1 -1 -1 -1 -1 -0 -0 -0 -0 0 0 1 1 0 0 0
3 3 3 3 3 3 3 2 2 2 2 2 2 1 1 1 0 -0 -0 -0 -0 -0 -1 -1 -1 -1 -1 -1 -1 -1 -1 -1 -1 -0 -1 -1 -1 -0 0 0 0 -0 -0
3 3 3 3 2 2 2 2 2 2 1 1 1 1 0 0 -0 -0 -1 -1 -1 -1 -1 -1 -1 -0 -1 -1 -1 -1 -2 -2 -2 -2 -1 -1 -1 -1 -1 -1 -0 -1 -0
Wind_Speed
3 3 4 5 5 5 5 4 4 4 4 5 5 4 4 4 4 5 5 6 7 8 9 9 9 9 9 9 9 10 10 11 11 12 13 13 13 13 13 13 13 14 14
4 3 3 3 4 5 4 4 3 3 3 3 4 4 4 4 4 4 5 6 7 8 9 10 10 11 11 11 11 11 12 12 12 13 13 14 14 14 15 15 15 15 16
5 4 3 3 3 4 5 4 4 3 3 3 4 4 3 4 4 4 4 5 6 8 9 10 11 12 13 13 13 12 12 13 14 14 14 14 14 15 16 17 17 17 17
5 5 3 2 3 4 4 2 3 3 3 3 3 4 3 3 3 4 4 5 5 6 8 10 12 13 14 14 14 14 14 14 15 16 16 15 15 16 16 17 18 18 18
5 5 3 2 4 4 3 2 2 2 2 4 3 3 3 3 3 4 4 4 5 6 7 9 12 13 14 14 14 15 15 16 16 17 17 16 16 17 18 18 19 19 18
4 4 3 3 3 2 2 2 2 2 2 3 3 4 3 3 3 3 4 4 5 6 7 8 9 10 13 14 15 15 16 17 17 18 18 17 17 18 18 19 19 19 19
3 3 2 2 2 2 2 2 2 2 3 3 2 3 3 3 2 3 3 3 4 6 7 8 8 9 10 14 15 16 17 18 18 18 18 17 18 18 19 19 19 18 19
3 3 2 1 1 1 2 2 2 1 2 3 2 2 4 4 3 3 3 3 4 5 6 9 9 9 10 10 13 17 18 18 18 18 19 18 18 19 19 19 19 19 20
2 2 2 2 1 1 0 1 1 1 1 2 2 1 1 2 5 3 3 4 4 4 5 7 8 10 11 10 11 14 17 18 19 19 19 18 19 19 19 19 20 20 20
1 2 2 2 1 1 0 1 0 0 0 1 1 0 1 2 2 4 4 3 5 6 6 7 8 9 10 10 11 15 17 17 18 19 20 19 19 18 19 19 20 20 20
0 1 1 1 1 1 1 0 0 0 0 1 1 1 1 1 2 3 6 6 6 5 5 6 6 7 9 9 9 12 16 18 19 19 20 20 19 19 19 19 19 20 20
0 0 1 1 1 1 1 1 1 1 1 1 2 2 2 2 2 2 5 8 9 6 6 5 5 6 7 8 11 15 18 18 19 19 20 19 19 18 19 19 20 20 20
1 2 1 1 1 1 1 1 1 1 2 2 3 3 3 3 3 3 5 7 8 7 5 4 4 5 7 8 10 16 17 19 19 19 19 18 18 19 19 19 19 20 20
3 3 2 1 1 1 1 1 1 2 2 3 3 3 3 4 3 3 3 5 8 7 5 6 3 3 6 8 11 16 14 18 19 19 18 18 18 18 18 18 18 19 19
2 2 2 2 1 1 1 1 2 2 2 3 4 4 4 4 4 4 4 4 4 7 10 6 4 4 7 8 13 12 12 17 18 18 18 17 17 18 18 18 18 18 18
2 2 2 1 1 1 1 1 2 2 3 3 3 4 4 4 4 4 4 4 4 5 8 7 7 8 9 10 14 12 12 17 17 17 17 17 18 18 18 18 18 17 17
3 3 2 2 2 2 2 2 3 3 3 4 4 4 5 5 5 4 4 4 4 5 9 10 8 8 8 9 10 10 11 10 11 16 18 18 18 18 17 17 15 15 16
3 2 2 2 2 2 2 3 3 3 4 4 5 5 6 5 6 5 4 5 5 5 7 11 11 9 9 9 9 9 10 10 9 15 17 17 17 17 16 15 15 14 15
2 2 2 2 2 2 3 3 3 4 4 5 5 5 6 5 7 5 5 5 5 6 5 8 10 9 8 8 9 9 9 8 9 12 14 14 15 15 14 14 14 13 13
2 2 2 2 2 2 3 3 3 4 4 4 4 5 5 6 7 6 6 6 6 6 6 7 8 8 8 8 7 8 9 7 8 9 10 12 13 14 14 14 14 12 12
1 1 1 1 2 2 2 3 3 4 4 4 4 5 5 7 9 7 6 6 5 6 6 7 8 8 8 8 8 7 10 10 8 5 7 7 8 7 9 12 12 11 10
1 1 1 1 2 2 5 5 4 3 3 4 5 5 6 7 9 10 11 10 8 7 7 7 8 10 11 10 8 8 8 9 8 4 6 8 6 6 7 7 11 11 9
0 0 1 1 2 4 5 6 5 3 3 4 4 5 6 6 8 6 9 10 9 10 10 8 9 10 11 10 9 9 8 9 8 7 6 7 5 6 6 8 12 10 9
0 0 1 1 2 4 6 5 6 3 3 4 4 5 5 6 6 7 6 6 6 7 8 7 7 9 9 9 8 8 8 8 7 5 3 5 5 5 6 7 10 10 9
0 1 1 1 2 4 6 6 5 2 3 4 5 5 5 5 9 10 6 7 8 7 9 11 12 11 13 13 10 5 5 6 7 5 3 3 4 5 5 5 6 9 10
0 1 1 1 1 3 5 6 6 2 3 4 4 4 6 7 10 10 6 6 7 8 8 9 9 9 9 9 10 6 5 5 5 4 3 3 3 4 4 3 3 5 6
Wind_Direction
79 64 55 48 41 41 40 33 28 23 16 9 6 5 357 351 347 345 342 341 336 330 325 326 324 318 312 308 308 310 306 297 294 290 283 278 275 275 277 274 277 275 271
90 76 59 49 40 38 38 37 27 20 5 359 355 353 342 339 340 343 342 340 338 334 328 324 324 321 314 310 307 303 306 298 295 293 289 285 278 275 275 276 273 277 271
94 85 69 50 35 36 38 37 28 27 12 1 349 341 343 341 339 338 335 335 334 336 333 327 323 322 317 311 308 305 306 303 297 292 287 283 281 280 277 274 274 273 273
98 88 75 49 35 40 39 34 18 16 6 355 340 332 332 334 339 337 338 335 332 330 330 330 326 323 321 315 311 310 307 305 302 295 287 283 281 279 279 277 275 273 272
98 93 81 57 49 47 34 18 23 18 356 346 332 330 331 331 323 334 332 336 331 325 325 328 327 324 320 317 313 311 306 304 301 298 291 284 283 281 279 279 276 275 273
102 95 83 61 56 53 24 18 11 8 350 331 327 327 319 316 315 321 314 328 332 324 323 323 325 324 321 319 317 312 310 307 303 300 295 288 285 283 282 281 279 276 274
112 104 89 66 59 56 28 12 5 7 1 347 355 337 321 308 311 305 312 317 321 322 325 323 320 316 315 316 314 311 309 307 303 301 299 294 291 287 286 284 280 279 277
123 119 110 114 90 70 37 23 21 8 0 9 23 4 343 334 337 320 323 316 312 321 323 320 316 313 310 308 309 311 310 307 303 301 300 294 290 289 288 284 282 280 279
126 120 122 117 119 115 77 4 35 53 343 350 31 85 31 300 318 314 306 309 313 316 313 313 309 307 306 306 306 309 309 309 303 300 301 296 291 289 287 287 284 282 281
138 130 134 133 140 140 148 288 23 177 160 319 331 325 206 230 294 313 308 304 304 306 304 307 305 301 301 301 302 305 309 311 309 305 303 299 294 292 291 290 289 286 286
155 149 149 140 151 170 203 260 329 287 200 246 275 283 292 288 242 268 302 313 312 293 292 291 291 294 294 296 299 303 309 309 308 307 305 302 297 292 292 292 291 290 288
233 195 152 144 168 187 214 231 234 245 251 248 254 251 244 259 273 265 285 304 308 304 299 290 288 286 291 297 301 308 310 310 309 307 305 302 302 296 294 292 290 289 288
235 236 210 194 208 229 236 228 231 254 248 252 251 255 252 251 252 260 280 297 302 303 297 288 278 289 302 304 304 309 309 309 309 308 305 303 303 300 295 292 290 289 288
217 216 211 211 230 237 250 244 246 255 258 257 266 261 266 266 253 254 261 290 307 307 301 291 292 286 306 308 307 312 309 308 307 305 305 305 304 303 300 295 292 290 288
211 200 208 217 236 238 239 246 257 260 262 260 261 261 265 270 262 259 259 257 273 302 305 296 303 303 314 313 312 312 307 305 308 307 307 308 306 304 304 301 296 293 288
199 192 196 208 236 261 268 260 270 266 263 270 266 267 271 275 274 265 262 262 252 264 287 293 299 307 313 314 315 316 312 312 311 309 308 308 307 304 303 303 296 292 290
189 188 201 210 232 255 262 263 269 271 270 276 278 276 276 280 281 274 272 271 266 263 281 294 297 305 306 310 313 314 312 310 308 307 307 308 306 304 304 306 300 296 294
193 195 199 209 235 256 261 255 268 270 266 274 279 280 283 292 285 279 276 276 273 265 272 291 301 306 305 307 308 310 313 312 307 305 307 307 307 307 307 309 306 302 301
189 188 194 215 241 255 259 259 261 263 262 265 271 276 283 288 287 285 283 280 280 284 277 285 296 302 304 307 311 309 308 307 309 312 311 312 311 312 312 310 312 311 314
187 195 210 226 245 260 266 265 269 269 268 269 270 272 277 276 276 281 284 279 285 291 291 290 294 300 302 303 306 313 317 318 314 313 312 314 314 315 317 315 317 316 321
201 205 208 257 274 272 274 281 274 272 274 283 284 282 282 287 290 291 292 289 290 293 296 296 297 303 306 313 314 313 312 315 313 304 313 314 314 314 317 319 318 318 321
193 157 190 257 286 292 301 301 300 277 280 287 293 295 293 290 297 303 303 301 298 296 299 299 301 304 305 307 308 309 311 315 314 317 317 311 316 313 312 316 319 320 325
177 209 286 277 278 291 305 309 311 312 296 293 294 301 305 305 309 303 302 307 304 302 300 297 297 299 303 307 307 305 306 305 298 304 311 305 317 313 313 320 328 328 333
185 260 285 287 292 302 311 312 316 317 298 294 290 290 295 302 307 312 312 311 308 306 305 305 296 299 303 303 300 296 297 301 296 299 311 301 313 312 318 323 336 345 346
333 296 279 283 295 304 316 318 322 312 303 297 295 294 298 300 308 319 321 315 315 317 321 319 319 319 322 321 320 318 313 316 313 312 326 308 306 313 316 325 337 351 351
287 310 317 310 301 302 318 326 329 312 307 307 306 301 309 314 316 322 320 316 317 319 323 325 329 333 329 326 329 323 309 308 309 308 332 331 311 326 326 322 332 342 346
Height
1510 1510 1510 1510 1510 1510 1510 1510 1510 1510 1510 1509 1509 1509 1509 1508 1508 1508 1507 1507 1506 1506 1505 1505 1504 1504 1503 1502 1501 1500 1499 1498 1498 1497 1496 1496 1495 1495 1494 1494 1494 1493 1493
1508 1509 1509 1509 1509 1509 1508 1508 1508 1508 1507 1507 1507 1507 1506 1506 1505 1505 1505 1504 1503 1503 1502 1501 1501 1500 1499 1498 1497 1496 1495 1494 1493 1492 1491 1491 1490 1489 1489 1489 1488 1488 1487
1507 1507 1507 1507 1507 1507 1507 1506 1506 1506 1505 1505 1505 1504 1504 1503 1503 1502 1502 1501 1500 1499 1499 1498 1497 1496 1495 1494 1493 1491 1490 1489 1488 1487 1486 1486 1485 1484 1483 1483 1482 1482 1482
1506 1506 1506 1506 1506 1505 1505 1505 1504 1504 1503 1503 1502 1501 1501 1500 1500 1499 1498 1498 1497 1496 1495 1494 1493 1492 1490 1489 1488 1486 1485 1484 1483 1482 1481 1480 1479 1479 1478 1477 1477 1476 1476
1504 1504 1504 1504 1504 1504 1503 1503 1502 1502 1501 1500 1499 1499 1498 1497 1497 1496 1495 1494 1494 1493 1491 1490 1489 1487 1486 1484 1483 1482 1480 1479 1478 1476 1475 1474 1473 1472 1472 1471 1471 1470 1469
1503 1503 1503 1503 1503 1502 1502 1501 1501 1500 1499 1498 1497 1496 1495 1494 1494 1493 1492 1491 1490 1489 1488 1486 1485 1483 1482 1480 1478 1477 1475 1474 1472 1471 1469 1468 1467 1466 1465 1465 1464 1463 1463
1501 1501 1501 1501 1501 1501 1500 1499 1499 1498 1497 1496 1494 1492 1491 1491 1490 1490 1489 1488 1487 1486 1484 1482 1480 1479 1477 1475 1473 1472 1470 1468 1466 1465 1463 1461 1460 1460 1459 1458 1457 1457 1456
1499 1500 1500 1500 1499 1499 1498 1498 1497 1496 1495 1494 1492 1490 1489 1488 1487 1486 1486 1485 1483 1482 1480 1478 1476 1474 1472 1470 1468 1466 1464 1462 1460 1459 1457 1455 1454 1453 1452 1451 1450 1450 1449
1497 1497 1498 1498 1498 1497 1497 1496 1495 1494 1493 1493 1492 1491 1489 1487 1484 1482 1482 1481 1480 1478 1476 1474 1472 1470 1468 1465 1463 1461 1459 1456 1454 1452 1451 1449 1447 1446 1445 1444 1443 1443 1442
1495 1495 1496 1496 1496 1495 1495 1494 1494 1493 1492 1491 1490 1490 1489 1487 1485 1479 1478 1477 1476 1474 1472 1470 1467 1465 1463 1461 1458 1456 1453 1451 1448 1446 1444 1442 1441 1439 1438 1437 1436 1435 1434
1493 1493 1494 1494 1494 1493 1493 1492 1492 1491 1490 1489 1488 1487 1486 1485 1483 1480 1474 1472 1470 1469 1467 1465 1463 1460 1458 1455 1452 1450 1447 1445 1443 1440 1438 1436 1434 1432 1431 1430 1429 1428 1427
1490 1491 1491 1491 1491 1491 1491 1490 1489 1488 1488 1487 1486 1484 1483 1482 1480 1478 1473 1468 1465 1463 1462 1460 1458 1455 1453 1450 1447 1445 1442 1439 1437 1434 1432 1430 1428 1425 1424 1423 1422 1420 1419
1487 1488 1488 1488 1488 1488 1488 1487 1487 1486 1485 1484 1483 1482 1480 1479 1478 1476 1472 1467 1462 1458 1456 1455 1453 1451 1448 1445 1442 1439 1437 1434 1431 1428 1426 1424 1422 1419 1418 1416 1414 1413 1411
1484 1485 1486 1486 1486 1486 1485 1484 1483 1483 1482 1481 1479 1478 1477 1476 1474 1472 1470 1466 1459 1454 1452 1450 1448 1447 1444 1440 1437 1434 1431 1429 1426 1423 1420 1418 1416 1413 1411 1409 1407 1405 1403
1482 1482 1483 1483 1483 1482 1482 1481 1480 1479 1478 1477 1476 1475 1473 1472 1471 1469 1467 1464 1461 1454 1446 1444 1444 1441 1439 1436 1433 1429 1426 1423 1420 1417 1415 1412 1410 1407 1405 1402 1400 1398 1396
1478 1479 1479 1479 1479 1479 1478 1478 1477 1476 1475 1473 1472 1471 1469 1468 1466 1464 1462 1461 1458 1455 1447 1441 1439 1437 1435 1432 1429 1425 1422 1418 1415 1412 1409 1407 1404 1401 1399 1396 1393 1391 1389
1475 1475 1476 1476 1476 1475 1475 1474 1473 1472 1471 1470 1468 1467 1465 1464 1462 1460 1457 1456 1454 1451 1445 1438 1436 1433 1430 1427 1423 1420 1417 1413 1410 1407 1404 1401 1398 1396 1393 1390 1387 1385 1383
1472 1472 1472 1472 1472 1472 1471 1470 1469 1468 1467 1465 1464 1462 1460 1459 1457 1455 1453 1451 1449 1446 1442 1436 1431 1428 1425 1423 1419 1415 1412 1409 1405 1402 1399 1396 1393 1390 1387 1385 1382 1379 1376
1468 1469 1469 1469 1469 1468 1467 1466 1465 1464 1462 1461 1460 1458 1456 1454 1452 1450 1448 1446 1443 1441 1438 1434 1428 1425 1421 1418 1414 1410 1407 1404 1400 1397 1394 1391 1388 1385 1382 1380 1377 1374 1371
1465 1465 1466 1466 1465 1464 1464 1462 1461 1460 1458 1457 1455 1453 1452 1450 1448 1445 1443 1441 1439 1436 1433 1430 1425 1421 1417 1414 1411 1406 1401 1399 1395 1393 1390 1387 1383 1381 1378 1375 1372 1369 1366
1462 1462 1462 1462 1462 1461 1460 1459 1457 1456 1454 1452 1451 1449 1448 1446 1444 1442 1439 1436 1434 1431 1429 1425 1421 1417 1414 1410 1407 1403 1399 1394 1391 1389 1385 1382 1379 1376 1373 1370 1367 1365 1362
1459 1459 1459 1459 1458 1457 1456 1455 1454 1452 1450 1448 1447 1445 1443 1442 1440 1438 1435 1433 1431 1428 1425 1422 1418 1414 1410 1407 1404 1400 1396 1392 1387 1385 1382 1378 1376 1372 1370 1367 1364 1362 1359
1455 1456 1456 1455 1455 1454 1453 1452 1450 1448 1447 1445 1443 1441 1439 1437 1435 1433 1430 1428 1427 1425 1422 1419 1415 1411 1407 1404 1401 1397 1394 1390 1386 1383 1380 1375 1373 1370 1367 1364 1362 1360 1358
1452 1452 1452 1452 1451 1450 1449 1448 1446 1445 1443 1441 1439 1437 1435 1432 1430 1428 1426 1424 1422 1420 1417 1415 1412 1408 1404 1401 1398 1395 1391 1387 1383 1381 1378 1373 1370 1367 1365 1362 1360 1358 1356
1449 1449 1449 1448 1448 1447 1446 1445 1443 1441 1439 1438 1436 1434 1432 1429 1427 1425 1423 1420 1417 1415 1413 1410 1408 1404 1401 1397 1394 1391 1387 1384 1380 1377 1375 1372 1368 1365 1362 1361 1359 1357 1356
1446 1446 1445 1445 1444 1444 1443 1441 1440 1437 1436 1434 1432 1430 1428 1426 1424 1422 1419 1416 1413 1411 1408 1405 1403 1400 1397 1394 1391 1389 1385 1382 1379 1375 1373 1371 1367 1365 1361 1359 1358 1357 1355